Regional Weather Roundup
Issued by NWS Upton, NY

Current Version | Previous Version | Graphics & Text | Print | Product List | Glossary Off
Versions: 1 2 3 4 5 6 7 8 9 10 11 12 13 14 15 16 17 18 19 20 21 22 23 24 25 26 27 28 29 30 31 32 33 34 35 36 37 38 39 40 41 42 43 44 45 46 47 48 49 50

000
ASUS41 KOKX 020904
RWROKX

REGIONAL WEATHER ROUNDUP
NATIONAL WEATHER SERVICE NEW YORK NY
500 AM EDT WED SEP 02 2015

NOTE: "FAIR" INDICATES FEW OR NO CLOUDS BELOW 12,000 FEET WITH NO
SIGNIFICANT WEATHER AND/OR OBSTRUCTIONS TO VISIBILITY.

NYZ071-072-176-178-NJZ106-104-021000-
NEW YORK CITY METRO AREA


CITY           SKY/WX    TMP DP  RH WIND       PRES   REMARKS
CENTRAL PARK   CLEAR     75  65  70 CALM      30.05S
LAGUARDIA APRT CLEAR     76  66  71 CALM      30.01F
KENNEDY INTL   CLEAR     72  69  90 S5        30.03F
NEWARK/LIBERTY CLEAR     72  66  81 SW3       30.02S
BRNX BOT. GARD   N/A     72  64  78 E2        30.02F
TETERBORO      CLEAR     70  64  81 CALM      30.01F
$$

NYZ177-179-078>081-021000-
LONG ISLAND NEW YORK

CITY           SKY/WX    TMP DP  RH WIND       PRES   REMARKS
FARMINGDALE    CLEAR     70  67  90 CALM      30.02F
ISLIP          PTCLDY    67  65  93 CALM      30.01F FOG
SHIRLEY        FOG       64  63  96 CALM      30.03S VSB 1/4
WESTHAMPTON    FOG       62  61  96 CALM      30.04F VSB<1/4
MONTAUK POINT    N/A     71  68  90 CALM      30.04F
$$

NYZ052-065-067-021000-
HUDSON VALLEY

CITY           SKY/WX    TMP DP  RH WIND       PRES   REMARKS
WHITE PLAINS   CLEAR     67  65  93 CALM      30.02F FOG
NEWBURGH       CLEAR     64  63  94 CALM      30.04F
MONTGOMERY     MOCLDY    60  59  96 SW3       30.03S
POUGHKEEPSIE   CLEAR     61  58  90 N3        30.02S
ALBANY         CLEAR     64  61  90 SW3       30.02F
$$

NJZ001-105-106-008-010-013-015-019>022-104-021000-
NEW JERSEY

CITY           SKY/WX    TMP DP  RH WIND       PRES   REMARKS
NEWARK/LIBERTY CLEAR     72  66  81 SW3       30.02S
TETERBORO      CLEAR     70  64  81 CALM      30.01F
CALDWELL       CLEAR     66  62  87 CALM      30.03F
MORRISTOWN     FOG       59  55  88 CALM      30.03F VSB 1/4
SOMERVILLE     CLEAR     63  60  90 CALM      30.01F
SUSSEX         CLEAR     60  58  92 SW3       30.04F
ANDOVER          N/A     62  61  96 CALM      30.05S
TRENTON        CLEAR     68  65  90 CALM      30.02F FOG
MILLVILLE      FOG       68  67  96 CALM      30.02S VSB 1/4
ATLANTIC CITY  FOG       70  69  97 CALM      30.02R VSB 1/4
WRIGHTSTOWN    NOT AVBL
TOMS RIVER     CLOUDY    70  66  88 CALM      30.03S VSB<1/4
BELMAR         CLOUDY    72  64  78 CALM      30.03S
$$

PAZ047>061-062-071-021000-
EASTERN PENNSYLVANIA

CITY           SKY/WX    TMP DP  RH WIND       PRES   REMARKS
PHILADELPHIA   MOCLDY    74  70  87 CALM      30.03S FOG
ALLENTOWN      CLEAR     64  62  93 CALM      30.04S FOG
SCRANTON       CLEAR     65  61  87 E6        30.06S
$$

CTZ002-004>006-009-010-012-RIZ004-006-007-MAZ004-011-015-021000-
SOUTHERN NEW ENGLAND
 IN CT

CITY           SKY/WX    TMP DP  RH WIND       PRES   REMARKS
BRADLEY INTL   PTCLDY    61  59  93 CALM      30.01F
HARTFORD       CLEAR     67  65  93 S5        30.01F
DANBURY        CLEAR     61  58  90 CALM      30.05S FOG
WTRBRY/OXFORD  CLEAR     63  55  77 CALM      30.05S
BRIDGEPORT     CLEAR     69  65  86 CALM      30.02F
MERIDEN        CLEAR     62  59  90 CALM      30.02S FOG
NEW HAVEN      CLEAR     65  64  97 CALM      30.02F FOG
CHESTER        NOT AVBL
GROTON         PTCLDY    63  63 100 CALM      30.02S FOG
WILLIMANTIC    FOG       62  60  93 CALM      30.03S VSB 1/2

 IN RI

CITY           SKY/WX    TMP DP  RH WIND       PRES   REMARKS
PROVIDENCE     CLOUDY    67  65  93 SW3       30.02S FOG
BLOCK ISLAND   CLEAR     66  66 100 SW6       30.03S
WESTERLY       CLEAR     60  57  89 CALM      30.03F

 IN MA

CITY           SKY/WX    TMP DP  RH WIND       PRES   REMARKS
BOSTON         CLEAR     67  63  87 SW10      30.00F
WORCESTER      CLEAR     64  60  87 W8        30.03F
WESTFIELD      CLEAR     58  57  97 CALM      30.02S FOG
PROVINCETOWN     N/A     66  61  82 SW7       30.02S
NANTUCKET      CLEAR     64  60  87 S7        30.03F
$$

ANZ330-335-338-340-345-350-353-355-021000-
COASTAL MARINE OBSERVATIONS


STATION/POSITION TIME  SKY/WX   TEMP    WIND        PRES    VSBY  WAVE
                                AIR SEA DIR/SP/G                  HT/PER
                 (UTC)          (F)     (DEG/KT/KT) (MB)    (MI)  (FT/S)
NY HARB ENTRANCE 0750            75 76  210/  2/  2 1016.6          1/ 8
4S FIRE IS       NOT AVBL
20S FIRE ISLAND  0750            74 74  190/  2/  2 1016.8          2/ 9
GREAT SOUTH BAY  0800            75 78  250/  6/  6   N/A
23SW MTP         0850            72 72  240/  2/  4 1016.5          2/ 8
HUDSON CANYON    NOT AVBL
KINGS POINT      0800            73 74  170/  2/  3 1016.0
EXECUTION ROCKS  0800            73     180/  2/  4   N/A
CENTRAL LI SOUND NOT AVBL
EASTERN LI SOUND 0800            71 70  210/  2/  4   N/A
ROBBINS REEF     0800            74     220/  3/  3 1015.6
$$


>>>>>>>>>>>>>>>>>>>>>>>>>>>> KEY <<<<<<<<<<<<<<<<<<<<<<<<<<<
>                                                          <
>     SKY/WX - SKY CONDITION/PRESENT WEATHER               <
>     TMP    - TEMPERATURE IN FAHRENHEIT                   <
>     DP     - DEWPOINT IN FAHRENHEIT                      <
>     RH     - RELATIVE HUMIDITY IN PERCENT                <
>     WIND   - DIRECTION AND SPEED IN MPH                  <
>     PRES   - MEAN SEA LEVEL PRESSURE IN INCHES OF HG     <
>     WCI    - WIND CHILL INDEX                            <
>     VSB    - VISIBILITY IN MILES                         <
>     HX     - HEAT INDEX                                  <
>     TC     - TEMPERATURE IN CELSIUS                      <
>     VRB    - VARIABLE WIND DIRECTION                     <
>                                                          <
>>>>>>>>>>>>>>>>>>>>>>>>>>>> KEY <<<<<<<<<<<<<<<<<<<<<<<<<<<





USA.gov is the U.S. government's official web portal to all federal, state and local government web resources and services.